Mountain Home Air Force Base, ID

5:22 PM MST on February 06, 2016 (GMT -0700)
Mountain Home Air Force Base

Weather History for KMUO - October, 2013

Change the Weather History Date:

Tuesday, October 8, 2013

  Actual Average Record
Temperature  
Mean Temperature 49 °F 55 °F  
Max Temperature 58 °F 70 °F 91 °F (1953)
Min Temperature 40 °F 38 °F 16 °F (1926)
Degree Days  
Heating Degree Days 16 10  
Month to date heating degree days 117 73  
Cooling Degree Days 0 0  
Month to date cooling degree days 0 2  
Moisture  
Dew Point 31 °F    
Average Humidity 51    
Maximum Humidity 74    
Minimum Humidity 32    
Precipitation  
Precipitation 0.00 in 0.02 in 0.37 in (1924)
Month to date precipitation 0.09 0.16  
Sea Level Pressure  
Sea Level Pressure 29.93 in    
Wind  
Wind Speed 15 mph (NW)    
Max Wind Speed 22 mph    
Max Gust Speed 24 mph    
Visibility 10 miles    
Events      
T = Trace of Precipitation, MM = Missing Value Source: NWS Daily Summary

Daily Weather History Graph

Daily Weather History Graph

Search for Another Location

Airport or City:

Trip Planner

Search our weather history database for the weather conditions in past years. The results will help you decide how hot, cold, wet, or windy it might be!

Date:

Astronomy

Oct. 08, 2013 Rise Set
Actual Time 7:49 AM MDT 7:11 PM MDT
Civil Twilight 7:20 AM MDT 7:40 PM MDT
Nautical Twilight 6:47 AM MDT 8:13 PM MDT
Astronomical Twilight 6:14 AM MDT 8:46 PM MDT
Moon 11:53 AM MDT (10/8) 9:46 PM MDT (10/8)
Length of Visible Light 12h 19m
Length of Day
11h 22m
Waxing Crescent, 16% of the Moon is Illuminated
Oct 8
Waxing Crescent
Oct 11
First Quarter
Oct 18
Full
Oct 26
Last Quarter
Nov 3
New

Hourly Weather History & Observations

Time (MDT) Temp. Windchill Dew Point Humidity Pressure Visibility Wind Dir Wind Speed Gust Speed Precip Events Conditions
12:58 AM 51.8 °F - 34.9 °F 53% 29.89 in 10.0 mi NW 21.9 mph - N/A   Clear
1:58 AM 49.6 °F - 34.5 °F 56% 29.91 in 10.0 mi NW 18.4 mph - N/A   Clear
2:58 AM 46.9 °F - 34.0 °F 61% 29.93 in 10.0 mi NW 13.8 mph - N/A   Clear
3:58 AM 46.2 °F 39.0 °F 33.6 °F 61% 29.93 in 10.0 mi NW 18.4 mph - N/A   Clear
4:58 AM 44.1 °F 36.2 °F 33.3 °F 66% 29.95 in 10.0 mi NW 18.4 mph - N/A   Clear
5:58 AM 41.2 °F 34.5 °F 32.9 °F 72% 29.97 in 10.0 mi NW 11.5 mph - N/A   Clear
6:58 AM 42.1 °F 35.2 °F 33.3 °F 71% 29.99 in 10.0 mi NW 12.7 mph - N/A   Clear
7:58 AM 40.5 °F 35.1 °F 32.7 °F 74% 30.01 in 10.0 mi NNW 8.1 mph - N/A   Clear
8:58 AM 44.2 °F 39.2 °F 32.5 °F 63% 30.01 in 10.0 mi NNW 9.2 mph - N/A   Partly Cloudy
9:58 AM 47.3 °F - 32.5 °F 57% 30.01 in 10.0 mi WNW 10.4 mph - N/A   Clear
10:58 AM 50.9 °F - 30.6 °F 46% 30.01 in 10.0 mi NW 13.8 mph - N/A   Clear
11:58 AM 52.9 °F - 29.8 °F 41% 29.99 in 10.0 mi NW 15.0 mph - N/A   Partly Cloudy
12:58 PM 54.1 °F - 30.2 °F 40% 29.97 in 10.0 mi NW 19.6 mph - N/A   Partly Cloudy
1:58 PM 55.0 °F - 28.9 °F 37% 29.94 in 10.0 mi WNW 15.0 mph - N/A   Partly Cloudy
2:58 PM 56.3 °F - 29.5 °F 36% 29.92 in 10.0 mi NW 11.5 mph 24.2 mph N/A   Mostly Cloudy
3:58 PM 57.2 °F - 27.3 °F 32% 29.90 in 10.0 mi NW 17.3 mph 23.0 mph N/A   Mostly Cloudy
4:58 PM 55.8 °F - 27.5 °F 34% 29.91 in 10.0 mi NNW 13.8 mph - N/A   Mostly Cloudy
5:58 PM 55.4 °F - 27.7 °F 35% 29.91 in 10.0 mi NNW 13.8 mph - N/A   Clear
6:58 PM 54.1 °F - 29.3 °F 39% 29.89 in 10.0 mi North 9.2 mph - N/A   Overcast
7:58 PM 52.7 °F - 29.8 °F 42% 29.89 in 10.0 mi NNW 9.2 mph - N/A   Overcast
8:58 PM 51.3 °F - 30.4 °F 45% 29.88 in 10.0 mi WNW 6.9 mph - N/A   Mostly Cloudy
9:58 PM 48.4 °F - 31.1 °F 51% 29.87 in 10.0 mi NW 6.9 mph - N/A   Mostly Cloudy
10:58 PM 47.1 °F - 31.3 °F 54% 29.87 in 10.0 mi WNW 9.2 mph - N/A   Mostly Cloudy
11:58 PM 46.9 °F - 34.0 °F 61% 29.86 in 10.0 mi NW 12.7 mph - N/A   Overcast